Location: B?ogocice
(50.2413°N, 20.2361°E)
Time: 23:15:20
(UTC+00:00)

Cosmos 2219 - Pass Details

Date: 15 June 2024
Orbit: 834 x 858 km, 71.1° (Epoch: 18 July)

Event Time Altitude Azimuth Distance (km) Brightness Sun altitude
Exits shadow 00:27:41 15° 227° (SW) 2,095 4.7 -12.6°
Maximum altitude 00:32:15 59° 304° (NW) 966 3.5 -12.3°
Drops below altitude 10° 00:37:49 10° 24° (NNE) 2,455 7.2 -11.9°
Sets 00:40:18 0° 28° (NNE) 3,393 8.6 -11.7°
